Location: Unspecified
(41.1637°N, 24.2901°E)
Time: 07:36:46
(UTC+01:00)

ISS - Pass Details

Date: 10 December 2018
Orbit: 401 x 408 km, 51.6° (Epoch: 12 December)

Event Time Altitude Azimuth Distance (km) Brightness Sun altitude
Rises 17:30:53 0° 307° (NW) 2,318 0.6 -17.6°
Reaches altitude 10° 17:32:59 10° 309° (NW) 1,455 -0.6 -18.0°
Maximum altitude 17:36:14 70° 34° (NE) 429 -4.0 -18.6°
Enters shadow 17:36:19 70° 49° (NE) 431 -4.0 -18.6°
